THORAD AGENA D DEB, 42546

Orbit data source: Space-Track

THORAD AGENA D DEB, 42546 is space debris in SSO originally from a launch on Wed, 08 Apr 1970 UTC launched from the Air Force Western Test Range (AFWTR). Debris objects in space refer to the collection of defunct objects orbiting the Earth. Examples of debris include non-operational satellites, rocket bodies, and fragments generated from explosions, collisions, or faulty payload assembly.

Loading next visibility...
Identifier
42546, 1970-025TC
Orbit
SSO
Country
Flag of USUS
Related business
Manufacturer
Unknown
Mission
Spacecraft
Bus & Motor
Unknown
Mass
Unknown
Launch date (UTC)
1970-04-08 (55 years ago)
Launch vehicle
Unknown
Launch site
Air Force Western Test Range (AFWTR)
Object type
Payload
Rocket body
Debris
Shape & HBR
Unknown
Radar Cross Section
Small (<0.1 m²)

Expand to show TLE details & history
Last TLE update: 2 days ago

TLE from 2 days ago
0 THORAD AGENA D DEB
1 42546U 70025TC  25257.30485633  .00000623  00000-0  83097-3 0  9999
2 42546 100.1314  97.9894 0053700 271.9976  87.5016 13.64331648586976
Epoch: 2025-09-14T07:18Z
TLE epoch observation values (Epoch: 2025-09-14T07:18:59.586Z)
Latitude
-0°
Longitude
-5.28465°
Altitude
1,021.262 km
Speed
7.342 km/s
True Right ascension
06h 31m 57s
True Declination
0° 00' 00"
Sunlit
Object was in daylight at epoch
Visualization orbit readout
Latitude
Unknown
Longitude
Unknown
Altitude
Unknown
Speed
Unknown
Apparent Right ascension
Unknown
Apparent Declination
Unknown
Sunlit
N/A
Visualization observer readout
Local Sidereal Time
00:28:28
Azimuth
Unknown
Elevation
Unknown
Doppler factor
Unknown
Orbital elements
Apogee altitude
1,057.01 km
Perigee altitude
977.583 km
Semi-major axis
7,395.433 km
Eccentricity
0.00537
Inclination
100.1314°
RAAN
97.9894°
Arg. of periapsis
271.9976°
True anomaly
88.11654°
Mean anomaly
87.5016°
Eccentric anomaly
87.80905°
Mean motion
3.4127 °/min
Orbital period
105.49 mins
BSTAR
0.00083097
Loading maneuver chart data...
Computing Atmospheric mass density...

Documentation

Showing up to 5 results
|